Weather History for Delaware, OH

Change the Weather History Date:

Wednesday, August 21, 2013

  Actual Average Record
Temperature  
Mean Temperature 68 °F -  
Max Temperature 82 °F 80 °F 101 °F (1936)
Min Temperature 55 °F 57 °F 42 °F (1940)
Cooling Degree Days 4    
Growing Degree Days 18 (Base 50)    
Moisture  
Dew Point 60 °F    
Average Humidity 78    
Maximum Humidity 100    
Minimum Humidity 54    
Precipitation  
Precipitation 0.00 in - - ()
Sea Level Pressure  
Sea Level Pressure 30.15 in    
Wind  
Wind Speed 1 mph (South)    
Max Wind Speed 10 mph    
Max Gust Speed -    
Visibility 8 miles    
Events Rain , Thunderstorm    
Averages and records for this station are not official NWS values.
T = Trace of Precipitation, MM = Missing Value Source: NWS Daily Summary

Daily Weather History Graph

Daily Weather History Graph

Search for Another Location

Airport:

Trip Planner

Search our weather history database for the weather conditions in past years. The results will help you decide how hot, cold, wet, or windy it might be!

Date:

Astronomy

Aug. 21, 2013 Rise Set
Actual Time 6:49 AM EDT 8:20 PM EDT
Civil Twilight 6:20 AM EDT 8:49 PM EDT
Nautical Twilight 5:46 AM EDT 9:23 PM EDT
Astronomical Twilight 5:09 AM EDT 10:00 PM EDT
Moon 8:28 PM EDT (8/21) 7:28 AM EDT (8/21)
Length of Visible Light 14h 28m
Length of Day
13h 31m
Full, 100% of the Moon is Illuminated
Aug 21
Full
Aug 28
Last Quarter
Sep 5
New
Sep 12
First Quarter
Sep 19
Full

Hourly Weather History & Observations

Time (EDT) Temp. Heat Index Dew Point Humidity Pressure Visibility Wind Dir Wind Speed Gust Speed Precip Events Conditions
12:16 AM 62.6 °F - 59.0 °F 88% 30.17 in 7.0 mi Calm Calm - N/A   Clear
12:36 AM 60.8 °F - 59.0 °F 94% 30.17 in 10.0 mi Calm Calm - N/A   Clear
12:57 AM 60.8 °F - 59.0 °F 94% 30.18 in 7.0 mi Calm Calm - N/A   Clear
1:16 AM 60.8 °F - 59.0 °F 94% 30.18 in 7.0 mi Calm Calm - N/A   Clear
1:37 AM 60.8 °F - 59.0 °F 94% 30.18 in 7.0 mi Calm Calm - N/A   Clear
1:57 AM 60.8 °F - 57.2 °F 88% 30.17 in 7.0 mi Calm Calm - N/A   Clear
2:16 AM 59.0 °F - 57.2 °F 94% 30.17 in 7.0 mi Calm Calm - N/A   Clear
2:37 AM 59.0 °F - 55.4 °F 88% 30.17 in 7.0 mi Calm Calm - N/A   Clear
2:57 AM 59.0 °F - 55.4 °F 88% 30.17 in 7.0 mi Calm Calm - N/A   Clear
3:16 AM 59.0 °F - 57.2 °F 94% 30.17 in 7.0 mi Calm Calm - N/A   Clear
3:37 AM 59.0 °F - 55.4 °F 88% 30.16 in 7.0 mi Calm Calm - N/A   Clear
3:57 AM 59.0 °F - 55.4 °F 88% 30.17 in 5.0 mi Calm Calm - N/A   Clear
4:16 AM 59.0 °F - 55.4 °F 88% 30.16 in 5.0 mi Calm Calm - N/A   Clear
4:37 AM 59.0 °F - 55.4 °F 88% 30.16 in 5.0 mi Calm Calm - N/A   Clear
4:57 AM 57.2 °F - 55.4 °F 94% 30.16 in 5.0 mi Calm Calm - N/A   Clear
5:16 AM 57.2 °F - 55.4 °F 94% 30.17 in 5.0 mi Calm Calm - N/A   Clear
5:37 AM 57.2 °F - 55.4 °F 94% 30.17 in 4.0 mi Calm Calm - N/A   Clear
5:57 AM 57.2 °F - 55.4 °F 94% 30.17 in 3.0 mi Calm Calm - N/A   Clear
6:16 AM 55.4 °F - 55.4 °F 100% 30.17 in 5.0 mi Calm Calm - N/A   Clear
6:37 AM 57.2 °F - 55.4 °F 94% 30.17 in 5.0 mi Calm Calm - N/A   Clear
6:57 AM 55.4 °F - 55.4 °F 100% 30.18 in 4.0 mi Calm Calm - N/A   Clear
7:16 AM 57.2 °F - 55.4 °F 94% 30.18 in 2.5 mi Calm Calm - N/A   Clear
7:37 AM 59.0 °F - 55.4 °F 88% 30.18 in 3.0 mi Calm Calm - N/A   Clear
7:57 AM 60.8 °F - 59.0 °F 94% 30.19 in 3.0 mi Calm Calm - N/A   Clear
8:16 AM 64.4 °F - 62.6 °F 94% 30.19 in 3.0 mi Calm Calm - N/A Thunderstorm Clear
8:37 AM 68.0 °F - 62.6 °F 83% 30.20 in 5.0 mi Calm Calm - N/A   Haze
8:57 AM 68.0 °F - 62.6 °F 83% 30.20 in 5.0 mi Calm Calm - N/A   Haze
9:16 AM 71.6 °F - 62.6 °F 73% 30.20 in 7.0 mi SSE 3.5 mph - N/A   Clear
9:37 AM 73.4 °F - 62.6 °F 69% 30.20 in 10.0 mi Calm Calm - N/A   Clear
9:57 AM 75.2 °F - 62.6 °F 65% 30.20 in 10.0 mi South 3.5 mph - N/A   Clear
10:16 AM 75.2 °F - 62.6 °F 65% 30.20 in 10.0 mi SSW 3.5 mph - N/A   Mostly Cloudy
10:37 AM 73.4 °F - 60.8 °F 65% 30.20 in 10.0 mi SSW 3.5 mph - N/A   Overcast
10:57 AM 77.0 °F - 62.6 °F 61% 30.20 in 10.0 mi SSE 4.6 mph - N/A   Mostly Cloudy
11:16 AM 77.0 °F - 62.6 °F 61% 30.20 in 10.0 mi South 4.6 mph - N/A   Mostly Cloudy
11:37 AM 75.2 °F - 60.8 °F 61% 30.20 in 10.0 mi SSE 5.8 mph - N/A   Mostly Cloudy
11:57 AM 75.2 °F - 62.6 °F 65% 30.20 in 10.0 mi Calm Calm - N/A   Overcast
12:16 PM 77.0 °F - 62.6 °F 61% 30.20 in 10.0 mi Calm Calm - N/A   Mostly Cloudy
12:37 PM 78.8 °F - 62.6 °F 57% 30.19 in 10.0 mi SE 3.5 mph - N/A   Overcast
12:57 PM 78.8 °F - 64.4 °F 61% 30.19 in 10.0 mi Calm Calm - N/A   Mostly Cloudy
1:17 PM 80.6 °F 82.3 °F 64.4 °F 58% 30.17 in 10.0 mi Calm Calm - N/A   Scattered Clouds
1:37 PM 80.6 °F 81.8 °F 62.6 °F 54% 30.16 in 10.0 mi South 5.8 mph - N/A   Scattered Clouds
1:57 PM 80.6 °F 81.8 °F 62.6 °F 54% 30.15 in 10.0 mi Calm Calm - N/A   Clear
2:17 PM 80.6 °F 81.8 °F 62.6 °F 54% 30.15 in 10.0 mi South 5.8 mph - N/A   Clear
2:37 PM 80.6 °F 82.3 °F 64.4 °F 58% 30.13 in 10.0 mi Calm Calm - N/A   Clear
2:57 PM 82.4 °F 83.9 °F 64.4 °F 54% 30.13 in 10.0 mi Calm Calm - N/A   Clear
3:17 PM 80.6 °F 82.3 °F 64.4 °F 58% 30.12 in 10.0 mi WSW 3.5 mph - N/A   Clear
3:37 PM 80.6 °F 82.3 °F 64.4 °F 58% 30.12 in 10.0 mi SSW 3.5 mph - N/A Thunderstorm Thunderstorm
3:56 PM 78.8 °F - 64.4 °F 61% 30.12 in 10.0 mi Calm Calm - N/A   Clear
4:17 PM 77.0 °F - 64.4 °F 65% 30.13 in 10.0 mi South 3.5 mph - N/A   Mostly Cloudy
4:37 PM 78.8 °F - 64.4 °F 61% 30.12 in 10.0 mi Calm Calm - N/A Thunderstorm Mostly Cloudy
4:56 PM 78.8 °F - 66.2 °F 65% 30.11 in 10.0 mi SSE 4.6 mph - N/A Thunderstorm Thunderstorm
5:17 PM 78.8 °F - 66.2 °F 65% 30.12 in 10.0 mi East 5.8 mph - N/A Thunderstorm Scattered Clouds
5:37 PM 80.6 °F 82.7 °F 66.2 °F 61% 30.12 in 10.0 mi East 6.9 mph - N/A   Clear
5:56 PM 77.0 °F - 64.4 °F 65% 30.12 in 10.0 mi SE 4.6 mph - N/A Thunderstorm Clear
6:17 PM 77.0 °F - 66.2 °F 69% 30.12 in 10.0 mi Calm Calm - N/A Thunderstorm Clear
6:37 PM 75.2 °F - 66.2 °F 73% 30.12 in 10.0 mi WNW 10.4 mph - N/A Thunderstorm Thunderstorm
6:56 PM 71.6 °F - 60.8 °F 69% 30.11 in 10.0 mi West 6.9 mph - N/A Rain , Thunderstorm Rain
7:17 PM 68.0 °F - 60.8 °F 78% 30.10 in 10.0 mi Calm Calm - N/A   Scattered Clouds
7:37 PM 68.0 °F - 57.2 °F 68% 30.10 in 10.0 mi West 3.5 mph - N/A   Clear
7:56 PM 66.2 °F - 59.0 °F 78% 30.10 in 10.0 mi Calm Calm - N/A   Clear
8:17 PM 66.2 °F - 59.0 °F 78% 30.09 in 10.0 mi Calm Calm - N/A   Clear
8:37 PM 64.4 °F - 59.0 °F 83% 30.08 in 10.0 mi SSW 3.5 mph - N/A   Clear
8:56 PM 64.4 °F - 59.0 °F 83% 30.10 in 10.0 mi SSE 5.8 mph - N/A   Clear
9:17 PM 64.4 °F - 55.4 °F 73% 30.10 in 10.0 mi South 3.5 mph - N/A   Clear
9:37 PM 62.6 °F - 55.4 °F 77% 30.10 in 10.0 mi SSE 4.6 mph - N/A   Clear
9:56 PM 64.4 °F - 57.2 °F 77% 30.10 in 10.0 mi Calm Calm - N/A   Clear
10:17 PM 62.6 °F - 59.0 °F 88% 30.11 in 10.0 mi Calm Calm - N/A   Clear
10:37 PM 60.8 °F - 59.0 °F 94% 30.12 in 10.0 mi Calm Calm - N/A   Clear
10:56 PM 60.8 °F - 59.0 °F 94% 30.13 in 10.0 mi Calm Calm - N/A   Clear
11:17 PM 60.8 °F - 59.0 °F 94% 30.14 in 10.0 mi Calm Calm - N/A   Clear
11:37 PM 60.8 °F - 59.0 °F 94% 30.13 in 10.0 mi Calm Calm - N/A   Clear
11:56 PM 60.8 °F - 57.2 °F 88% 30.14 in 10.0 mi Calm Calm - N/A   Clear